Theta_e
333 336 339 345 348 350 351 353 353 353 351 343 344 349 351 354 351 352 350 348 347 346 346 345 345 345 344 342 344 345 345 345 345 341 341 345 342 344 350 348 345 345 346 345 344 344 343 343 342 336 333 337 340 342 342 344 344 344 344 342 340 340 341 341 342 343 344 344 345 345 343 342 339 337 339 341 341 343 345 345 345 345 345 344 344 345 344 345 341 330 328 331 333 335 337 340 340
337 342 345 348 349 351 353 355 352 347 345 341 345 351 353 355 351 350 350 348 347 346 345 344 346 347 344 343 342 340 345 348 347 347 348 345 343 347 348 347 347 348 346 345 344 344 344 341 335 332 336 340 342 341 342 343 343 343 342 341 340 340 339 339 339 340 342 343 344 344 342 342 339 337 339 341 342 342 344 345 345 344 344 343 343 345 344 345 340 324 321 328 335 339 341 342 342
343 346 349 350 351 354 355 355 351 343 340 340 346 354 355 354 351 351 351 348 346 344 344 345 347 347 342 341 342 340 344 346 346 346 348 345 346 348 347 348 349 348 348 347 345 344 345 338 330 333 339 341 342 342 342 342 341 340 340 340 340 340 340 338 339 339 340 342 343 342 341 342 341 340 341 342 341 341 343 345 345 343 343 342 343 345 344 344 341 327 323 332 339 342 343 343 343
346 349 351 352 354 354 355 355 352 343 339 340 344 354 356 353 351 351 351 347 344 343 344 346 349 349 346 342 343 345 346 346 346 345 347 346 347 348 348 348 347 348 349 350 347 345 343 334 332 339 341 342 343 342 341 341 340 339 339 340 341 341 340 340 341 340 341 341 341 341 341 341 342 342 342 342 341 341 343 345 344 342 342 343 343 344 343 343 342 336 333 338 341 341 342 343 343
348 350 350 353 355 354 356 354 353 347 343 344 346 354 355 351 351 351 351 346 343 342 345 348 348 349 349 347 346 346 346 346 346 345 347 348 348 348 348 347 348 349 349 349 347 344 336 331 337 341 342 343 342 341 341 340 340 340 341 342 342 342 342 342 342 342 341 339 339 341 341 341 342 341 342 343 341 342 344 345 343 340 342 344 344 344 343 342 342 341 341 342 341 341 342 343 342
350 351 351 354 356 354 356 351 349 348 350 353 351 355 354 351 352 351 350 346 344 343 347 349 347 347 348 349 349 348 346 345 346 346 348 349 348 348 348 348 349 349 346 345 345 340 332 335 341 342 343 343 341 340 340 340 341 342 342 342 343 342 341 342 342 342 340 338 340 341 340 341 341 341 342 343 342 344 345 345 344 342 343 344 345 344 343 343 342 342 342 341 340 341 342 342 342
350 353 355 356 355 355 356 348 347 351 354 356 355 355 353 354 353 351 349 346 345 347 348 349 348 347 348 349 349 350 348 345 346 346 348 348 347 348 348 349 350 347 344 343 344 339 334 340 343 344 344 342 341 341 341 341 341 343 343 343 342 341 341 341 341 341 339 339 341 341 340 340 341 341 342 344 343 344 344 344 343 343 344 345 345 344 343 343 342 342 340 340 340 341 340 340 341
351 354 356 356 355 356 355 349 351 355 354 355 354 354 354 354 352 351 349 346 347 348 349 349 349 347 348 349 350 350 348 346 347 347 348 347 347 348 349 350 349 346 344 343 341 336 336 343 344 344 344 343 343 342 342 343 343 343 342 342 342 341 341 342 341 341 340 340 341 341 340 340 340 340 341 345 345 344 343 341 342 343 343 345 344 344 344 343 343 342 341 341 342 341 337 336 337
352 354 356 356 354 352 350 351 354 355 355 354 354 355 355 353 352 352 350 348 348 348 349 349 349 348 349 350 351 349 348 348 348 347 348 347 347 349 350 350 348 346 345 343 340 337 340 344 343 344 344 344 344 343 344 344 344 343 342 342 341 342 342 342 342 341 341 341 341 341 341 341 341 340 341 344 345 344 343 341 343 343 343 345 344 343 343 343 343 343 342 342 342 341 338 336 334
354 354 355 355 352 348 346 350 353 355 355 354 356 356 355 354 354 354 351 349 348 348 350 350 350 350 350 351 350 349 347 348 348 348 348 348 347 348 350 349 347 347 345 344 342 341 342 344 343 344 345 344 344 344 344 343 342 342 342 342 341 342 342 342 343 342 341 342 342 342 342 342 342 342 342 343 343 345 343 342 343 343 343 345 344 343 343 342 342 342 342 341 341 340 337 336 333
355 354 356 354 348 344 343 349 353 355 354 354 356 356 356 355 355 354 352 349 348 349 350 350 350 351 351 351 350 349 348 348 348 348 349 348 348 348 349 348 347 346 345 343 344 344 344 344 344 344 344 344 344 344 343 342 342 342 342 342 342 342 343 344 344 343 341 341 342 342 343 342 342 343 343 342 342 343 342 341 343 343 344 344 343 343 342 342 341 342 342 341 341 339 335 333 332
354 353 355 353 347 347 348 350 354 356 353 353 355 355 356 356 355 356 353 350 349 349 349 350 350 349 348 349 350 348 347 348 348 349 349 348 347 348 348 347 346 346 343 343 346 347 347 346 345 345 344 343 344 344 343 342 342 343 343 342 342 342 343 345 344 342 341 341 342 343 343 341 342 343 343 341 341 342 342 339 340 343 344 343 343 342 342 342 341 342 342 340 339 336 333 331 329
354 353 353 351 350 353 353 352 356 355 355 354 354 356 356 356 356 356 355 352 350 348 349 350 350 348 347 348 348 346 347 348 348 348 348 348 348 348 348 347 346 344 343 344 347 348 350 350 349 347 344 343 343 344 343 343 343 343 343 342 343 344 345 346 344 340 341 342 342 343 342 339 341 343 343 340 339 341 341 338 339 343 343 343 342 342 342 342 340 340 340 339 337 335 335 334 333
354 354 353 351 353 355 354 354 355 355 355 355 355 356 355 356 356 356 356 354 352 351 349 350 349 348 347 347 346 346 348 348 348 348 348 348 348 347 347 347 345 345 343 344 346 348 351 352 351 349 344 342 343 344 344 344 344 344 343 343 344 345 346 346 344 340 341 342 343 343 340 338 340 343 341 339 339 341 340 337 339 342 342 343 343 343 342 341 340 340 339 340 338 340 340 338 337
354 354 354 352 351 352 353 355 353 356 357 355 355 356 356 356 355 355 355 354 354 351 349 350 349 348 347 344 344 346 348 348 348 348 348 348 348 347 348 347 346 345 344 344 345 347 351 351 351 350 348 345 343 344 344 344 344 345 344 344 344 345 346 346 344 342 342 343 344 343 340 338 341 343 342 340 341 342 342 339 339 340 340 342 342 341 341 340 340 340 340 341 340 341 341 340 338
353 354 354 350 350 350 352 355 353 357 358 356 355 356 356 357 355 355 355 354 354 351 350 349 349 349 346 344 344 347 348 348 347 347 348 348 348 347 347 347 347 344 341 342 345 348 350 350 349 348 349 347 344 345 345 344 344 345 345 344 344 344 346 346 344 343 343 343 344 344 341 340 341 343 342 341 342 343 342 341 340 339 338 340 341 340 340 340 341 340 341 342 341 341 340 340 338
353 353 353 349 348 351 353 355 355 357 357 356 356 356 356 356 355 356 355 354 353 351 350 348 348 347 345 345 346 347 348 347 348 348 349 348 347 348 347 348 347 344 339 340 343 348 349 347 346 345 346 345 344 346 346 345 344 345 345 344 343 344 345 345 344 342 342 343 343 343 342 340 341 341 342 341 341 343 342 342 341 339 338 338 339 339 340 341 341 341 342 342 342 340 340 340 339
352 353 351 348 349 351 353 355 355 358 357 355 357 357 355 356 356 355 353 353 352 350 351 350 349 349 347 347 347 347 348 348 348 348 348 347 347 347 347 347 348 345 342 341 343 346 347 346 346 344 344 343 344 346 345 345 345 345 344 344 343 343 344 345 344 343 341 343 343 343 341 339 341 341 342 341 341 343 342 342 341 338 337 338 339 339 340 341 340 340 340 340 340 340 342 345 343
351 351 351 349 351 353 353 355 355 357 356 355 357 357 355 356 355 354 352 352 352 350 351 350 350 350 349 348 347 348 349 349 348 347 347 347 347 347 347 348 348 346 344 344 345 346 346 347 346 345 344 343 344 344 344 346 347 347 346 344 344 343 344 344 344 343 342 344 345 344 341 339 341 342 341 340 341 342 341 341 341 340 339 338 339 340 340 340 340 339 339 338 340 341 344 348 348
351 351 351 349 351 354 355 354 355 356 356 355 357 357 356 356 354 354 352 353 353 351 352 351 350 350 349 348 348 348 349 349 348 347 346 346 347 346 347 347 347 346 345 345 347 347 345 346 345 344 345 344 344 343 344 346 347 349 348 346 344 343 343 344 344 343 343 345 345 344 342 340 342 343 342 340 339 340 340 341 341 342 342 339 339 340 340 340 340 340 340 340 343 345 346 348 349
350 349 349 347 349 354 354 354 356 357 355 355 357 357 356 356 354 354 352 351 353 352 352 349 349 349 348 348 348 348 349 349 348 346 346 346 346 346 346 346 346 346 345 345 347 347 344 346 345 344 345 345 346 345 344 345 345 347 345 343 344 344 344 345 344 342 343 344 344 344 343 342 342 341 341 339 338 339 339 339 340 341 341 340 339 339 339 340 341 340 341 343 345 347 348 348 348
348 348 347 345 348 353 354 355 357 356 355 356 358 358 357 356 355 355 352 352 352 353 351 348 349 349 348 348 348 348 348 348 348 346 346 347 346 346 346 346 346 345 343 344 348 347 344 346 346 345 345 345 345 345 344 344 345 345 342 342 344 345 344 344 345 344 343 343 343 345 345 346 345 342 340 339 338 339 338 339 339 340 338 339 338 339 339 340 340 339 343 346 347 347 346 345 345
347 347 345 343 345 352 355 356 356 356 356 357 358 358 356 356 355 354 354 356 354 352 350 348 349 348 347 348 348 348 349 348 347 347 347 347 346 347 346 345 345 344 343 346 348 346 343 344 346 345 345 345 344 344 344 344 344 342 339 341 345 345 345 344 344 345 344 342 343 346 348 349 347 345 341 339 339 339 339 338 339 339 337 338 339 339 339 340 341 343 346 347 346 346 344 343 342
346 344 340 340 345 352 356 355 354 355 356 356 357 358 357 356 354 354 356 356 354 352 350 350 350 348 348 348 348 348 349 348 347 347 346 346 347 347 346 344 344 343 344 347 347 347 344 343 345 346 345 345 344 344 344 344 343 340 338 340 342 343 345 344 344 344 344 344 343 347 350 350 349 347 344 341 340 338 339 340 341 342 342 342 343 343 342 344 346 346 345 344 344 346 345 344 344
344 342 337 342 350 354 356 355 354 355 356 356 356 357 358 356 353 355 356 354 353 352 350 351 349 349 348 347 347 349 348 348 347 347 347 347 348 347 344 343 343 343 345 347 347 347 345 343 345 345 345 345 344 345 345 345 342 339 337 338 338 341 344 343 343 343 344 344 343 346 348 348 347 346 344 341 338 335 337 341 344 345 346 346 346 346 346 347 348 346 344 344 345 345 345 345 345
338 335 335 347 356 355 356 355 354 355 356 355 356 357 356 355 355 356 355 353 353 353 352 351 350 349 348 347 348 349 349 348 347 347 347 347 347 346 343 341 342 343 345 346 348 347 343 342 345 347 346 345 346 346 346 345 341 338 337 337 337 341 343 343 344 344 344 343 341 342 343 345 345 343 340 336 335 337 341 344 346 347 348 348 347 347 347 348 348 347 346 346 345 345 344 344 343
332 332 342 354 357 355 356 356 354 352 353 354 355 356 355 355 355 355 355 354 352 352 352 350 350 349 348 348 348 349 349 348 348 348 348 348 347 345 342 342 342 343 345 347 349 347 344 343 344 345 345 344 346 347 346 345 341 339 338 337 337 339 342 345 346 345 342 339 336 335 335 340 342 339 336 337 340 344 347 348 348 349 348 347 348 348 348 348 348 348 348 347 346 345 344 344 343
329 338 352 355 355 356 355 357 355 351 352 354 355 354 355 355 355 355 355 353 352 352 352 350 349 349 348 348 348 349 349 349 349 348 347 348 347 345 342 342 341 344 346 347 348 346 346 347 344 344 345 344 345 346 346 345 342 340 338 337 337 337 340 345 346 343 339 335 334 334 332 335 337 335 337 342 345 347 349 349 348 348 347 348 349 349 349 349 349 348 347 348 349 347 345 345 344
330 341 353 353 354 355 354 356 356 353 353 353 353 354 354 354 354 356 355 353 354 353 352 350 348 349 349 349 349 350 349 349 349 348 347 347 346 345 342 341 341 343 347 347 347 346 348 348 344 344 345 343 344 346 346 345 342 340 339 338 336 337 340 344 344 339 336 336 336 336 336 336 336 336 338 342 346 347 346 347 348 348 348 349 349 348 349 350 349 348 347 349 350 348 346 345 344
331 340 350 353 354 355 354 356 357 355 353 352 354 355 354 354 355 356 354 354 354 353 352 351 349 349 349 349 349 349 350 349 348 348 348 347 346 344 342 341 341 344 348 348 348 349 349 348 345 344 345 343 343 344 345 344 342 340 341 339 337 339 342 342 341 337 335 337 338 338 339 338 338 338 339 341 345 345 343 345 347 349 350 350 348 348 350 350 350 350 349 349 349 348 347 346 345
336 341 347 352 349 351 356 355 356 356 352 353 355 355 355 354 355 356 354 355 355 353 352 351 349 349 350 350 349 350 350 349 349 348 348 346 344 342 341 340 341 346 349 349 349 349 348 347 346 344 342 343 342 343 345 343 341 340 341 341 338 340 344 344 343 341 339 340 340 339 339 340 340 340 341 342 345 347 346 344 345 347 348 350 350 348 350 351 350 351 351 350 350 349 348 347 346
344 339 338 347 346 349 356 355 356 355 352 353 353 353 354 355 355 355 355 355 355 354 352 351 350 349 350 350 350 350 350 350 349 348 347 345 342 339 340 338 341 348 349 349 349 349 348 345 345 345 340 342 342 343 343 341 341 340 339 340 338 341 345 346 346 346 344 344 344 341 340 342 342 341 342 341 346 351 349 346 344 343 345 348 347 347 350 352 350 350 351 352 351 350 349 348 347
345 339 336 342 344 347 354 355 356 355 352 354 352 352 354 355 356 356 356 356 355 354 353 352 350 350 350 350 350 349 350 350 349 349 347 345 342 338 339 338 341 348 349 350 348 347 349 344 344 348 343 340 342 342 342 340 341 341 340 340 339 342 346 346 347 347 347 346 345 342 341 342 342 342 342 343 347 351 351 350 347 343 346 347 345 348 351 352 351 350 350 351 353 352 350 348 347
339 340 338 342 344 347 349 353 356 355 353 353 352 354 354 353 355 356 355 355 355 354 353 352 351 350 350 351 350 350 351 350 349 349 346 344 343 341 339 337 341 348 350 350 348 347 350 347 346 349 346 343 343 341 341 341 342 343 343 342 340 344 348 347 347 347 347 347 345 343 342 342 342 343 343 343 347 351 352 351 348 346 347 346 346 350 351 351 352 352 351 349 350 352 350 348 347
335 337 338 340 343 346 348 351 353 353 353 352 352 353 354 353 353 355 354 354 355 355 353 352 351 350 350 351 351 351 351 350 350 349 347 345 344 343 341 340 342 348 350 350 349 348 349 348 346 345 345 345 343 342 342 341 342 343 345 345 342 344 348 348 347 347 348 348 346 342 342 343 342 343 343 342 345 348 350 350 346 345 347 346 348 352 352 350 349 350 351 349 350 352 350 347 346
338 339 339 340 340 343 349 351 350 353 353 353 352 351 353 354 352 353 353 353 353 354 354 352 352 352 351 351 351 351 351 350 350 350 347 346 346 345 345 345 346 349 351 351 348 347 345 346 344 342 344 345 343 342 343 344 344 344 346 347 344 345 348 347 348 348 349 349 344 340 342 344 344 343 343 343 344 346 348 348 345 345 347 346 348 351 352 350 347 347 348 349 352 353 349 346 345
338 342 342 341 341 344 349 352 350 351 350 350 353 351 350 351 351 352 353 353 353 354 355 353 352 352 351 351 351 351 351 350 351 350 349 348 347 347 347 349 350 351 352 350 348 346 345 345 343 341 344 344 342 344 344 346 348 345 347 348 348 348 348 347 348 350 350 349 344 341 343 344 344 343 343 344 344 344 345 345 343 344 346 345 344 346 347 346 345 347 348 349 352 352 348 346 345
334 339 340 339 343 346 350 352 352 352 351 349 352 352 350 352 353 353 354 353 353 355 355 354 353 353 352 352 351 352 352 351 350 350 349 349 348 349 350 351 351 352 352 350 350 348 346 347 345 342 344 344 344 344 343 345 347 347 348 350 350 350 349 349 352 352 352 348 343 343 344 344 344 344 343 345 345 344 344 344 342 343 344 344 342 342 344 344 344 347 351 352 352 350 348 346 345
331 336 337 338 344 346 347 351 353 352 351 351 352 351 351 353 353 353 354 353 353 354 354 354 355 354 353 353 353 352 352 352 350 350 350 349 349 350 351 351 351 352 352 351 351 349 345 348 346 342 343 344 345 345 343 343 345 347 349 350 352 351 351 352 352 351 352 349 345 344 345 344 344 344 344 345 346 345 343 343 343 343 343 343 344 343 343 344 345 348 352 353 352 350 347 347 345
329 332 332 335 342 341 339 347 352 351 349 350 352 349 350 355 354 352 354 353 354 353 351 352 353 354 353 353 353 354 352 352 351 350 349 349 350 352 351 353 352 352 353 352 351 349 347 346 343 342 342 343 345 345 343 344 345 347 348 349 351 351 351 350 347 346 348 348 346 344 344 344 344 344 345 345 346 345 343 343 344 344 343 343 344 344 345 348 348 350 351 351 353 350 347 346 346
327 329 328 331 339 338 338 346 353 352 349 349 350 344 345 352 354 354 355 354 354 353 352 353 353 353 355 354 354 355 353 352 351 349 348 349 350 352 352 353 352 352 352 353 352 351 350 347 342 341 342 342 344 344 344 345 345 347 347 347 348 348 348 346 346 347 345 344 345 345 343 343 344 344 345 346 346 346 344 345 345 344 344 343 344 348 350 350 351 351 350 350 353 351 348 346 346
323 327 327 328 336 339 343 350 351 346 343 346 347 339 339 347 353 354 354 354 354 354 354 355 353 352 354 355 354 355 353 351 351 349 349 350 351 352 352 353 353 352 352 353 352 351 352 350 343 341 341 342 344 345 345 345 345 346 347 347 347 349 349 348 350 351 349 346 348 348 344 342 343 344 344 346 346 346 346 346 346 345 345 343 345 347 348 348 351 353 351 351 353 350 349 347 345
322 324 326 327 333 337 343 348 344 336 336 346 347 338 337 342 349 353 354 353 353 353 354 355 353 352 353 355 354 354 354 352 351 350 348 348 350 351 352 353 352 352 351 352 352 351 352 349 343 341 342 342 344 345 346 345 344 345 346 349 351 352 353 352 352 353 352 351 350 347 344 343 342 343 344 344 345 346 346 346 346 346 346 345 343 343 346 351 353 351 349 350 349 347 350 349 346
322 325 326 324 328 334 338 341 337 333 336 344 348 342 336 335 343 351 354 354 354 353 352 353 354 351 351 353 354 353 353 352 350 349 349 348 349 350 352 352 352 351 351 352 351 352 352 346 341 342 341 342 344 344 345 345 344 344 344 350 353 353 353 353 352 352 353 351 350 347 345 344 343 343 344 344 344 346 346 346 346 345 346 346 343 343 348 351 348 345 345 346 345 345 348 350 349
324 325 326 324 327 332 334 334 332 333 334 333 340 344 334 331 342 351 353 354 354 354 352 352 353 352 350 351 353 353 353 351 350 349 348 348 348 350 351 351 351 351 351 350 350 352 352 345 340 342 341 342 343 342 343 343 343 343 344 348 352 352 353 354 353 353 352 350 349 348 345 345 344 343 343 344 345 346 346 346 346 345 346 346 346 349 350 348 344 343 344 345 346 346 346 348 349
327 326 326 326 329 331 332 331 330 332 332 327 331 338 332 330 342 349 350 352 354 355 353 351 353 353 351 351 352 353 353 352 351 350 348 348 349 349 349 350 350 350 351 351 350 351 351 346 340 342 342 342 342 342 342 342 342 344 344 346 348 349 351 352 353 352 349 346 346 346 344 345 345 343 343 342 343 345 346 347 347 345 345 344 346 350 349 346 344 343 343 345 346 346 344 346 349
327 327 327 327 328 331 333 332 330 332 331 327 328 334 331 329 339 348 348 351 351 352 352 351 353 353 352 351 350 352 353 352 350 350 349 348 348 348 349 348 350 350 350 351 350 349 352 348 342 342 343 342 343 342 341 341 342 343 344 343 345 347 348 348 349 348 346 345 346 345 345 346 346 345 345 343 342 343 345 347 348 347 346 344 343 345 348 349 349 348 346 344 345 345 344 344 347
327 328 327 327 327 329 329 328 332 330 328 327 329 333 331 327 336 348 350 350 349 350 351 350 352 353 353 352 350 350 352 353 352 350 349 349 349 348 348 348 350 351 351 351 350 349 351 350 343 342 344 343 343 343 341 341 341 343 343 343 344 346 347 346 347 347 346 347 348 348 346 346 345 344 344 343 343 343 343 345 346 347 347 344 342 343 347 349 351 352 348 343 344 345 344 344 346
326 327 325 324 324 325 325 327 330 328 326 330 331 333 331 329 337 348 351 350 350 351 352 351 351 352 353 353 351 349 350 353 353 351 350 350 349 349 349 349 351 353 352 352 351 349 351 350 343 341 344 344 344 343 341 341 342 342 343 343 344 344 345 346 346 347 348 348 350 349 347 347 345 343 343 342 343 345 343 342 343 345 347 345 344 344 345 345 346 349 347 345 347 345 344 345 345
324 324 323 322 323 324 325 326 327 325 325 330 335 335 330 330 340 348 350 351 351 352 353 353 352 351 353 354 352 350 350 352 353 351 350 349 350 350 350 350 352 354 354 353 351 350 352 349 342 341 343 344 345 344 341 341 341 342 342 343 343 343 344 345 347 351 352 351 350 350 351 351 349 346 345 342 343 346 344 343 343 345 347 346 345 344 345 343 344 345 344 346 349 347 343 344 344
323 324 325 323 322 324 323 323 324 324 324 328 334 334 327 329 342 348 348 351 352 352 352 353 353 353 354 354 354 352 350 351 353 352 351 350 350 351 351 351 353 355 354 353 353 352 352 348 342 341 342 344 346 345 343 342 342 342 341 342 343 344 344 346 347 351 352 353 352 351 351 352 353 352 349 345 344 344 344 344 344 345 345 346 345 345 345 344 343 344 343 343 348 347 342 343 346
322 323 323 322 323 324 323 322 323 323 324 328 331 330 330 338 347 350 349 351 352 351 351 353 353 354 355 355 354 353 351 351 352 353 352 351 350 351 352 352 353 354 353 353 354 353 352 347 342 341 342 342 344 346 345 344 343 342 341 341 342 343 343 346 347 346 348 350 352 352 350 350 352 353 350 345 344 344 344 344 345 346 345 345 346 345 345 345 344 345 345 343 346 350 347 344 347
322 320 319 323 327 327 323 322 325 323 323 327 327 326 332 340 344 347 351 351 353 353 350 352 354 354 356 355 355 353 351 351 351 352 352 351 351 352 352 352 353 353 353 353 353 351 348 346 343 342 342 342 343 345 346 346 344 343 342 342 342 342 342 346 348 348 349 351 349 349 352 352 351 351 350 349 347 345 344 344 345 347 346 345 346 346 345 346 345 345 347 344 347 353 350 345 348
321 319 319 323 326 326 324 321 323 323 321 324 325 325 326 329 336 348 353 351 352 352 349 352 355 355 355 354 354 354 353 352 351 352 350 350 351 352 353 353 352 353 353 352 350 347 345 344 344 343 342 342 342 345 346 347 347 345 343 342 341 341 344 349 352 351 352 354 350 348 353 353 352 352 351 351 349 346 344 344 345 346 346 345 346 347 346 345 345 346 348 346 345 349 347 345 346
322 321 322 322 320 321 323 322 322 322 320 321 324 326 324 324 333 346 351 351 352 351 350 351 354 355 354 351 352 354 354 354 352 351 349 348 348 350 351 352 352 353 353 352 347 344 343 345 345 344 344 344 344 348 350 348 347 347 346 345 342 340 344 349 352 353 353 353 352 351 352 353 355 353 350 347 347 347 346 344 344 345 347 346 345 347 347 345 345 348 351 350 349 347 343 344 346
324 324 323 322 321 320 322 322 322 321 320 320 322 324 323 328 340 349 351 352 353 352 350 350 354 356 353 351 351 352 353 354 353 350 349 348 347 347 349 350 351 351 352 351 348 343 342 344 344 344 345 345 345 348 351 349 348 350 349 348 344 341 341 344 348 351 352 352 352 352 353 352 354 355 352 348 347 349 349 347 348 349 351 351 348 349 351 347 344 347 352 354 356 352 345 345 349
320 320 320 320 320 321 321 321 320 320 320 321 322 321 324 338 353 354 352 352 351 352 352 353 354 354 353 353 352 352 353 354 353 351 349 349 348 347 347 347 347 350 352 352 349 346 345 345 346 346 344 344 343 347 351 350 349 350 350 348 346 344 342 343 346 348 349 351 352 352 352 353 353 354 354 352 350 349 348 347 351 352 353 353 349 347 351 350 346 344 347 351 354 352 346 348 351
321 320 320 320 319 319 319 319 320 320 320 321 321 320 328 344 351 349 349 349 351 354 353 354 354 354 354 354 353 354 354 353 353 352 350 349 348 347 347 345 344 347 351 352 351 349 350 348 348 349 348 344 343 347 352 350 348 349 348 348 348 348 347 344 346 348 349 349 351 351 351 353 353 353 353 354 353 352 349 348 351 352 351 350 347 343 347 352 350 346 346 350 353 350 347 349 350
Wind_Speed
6 7 8 5 3 2 4 3 3 3 3 2 5 4 5 5 8 9 11 11 10 10 11 16 16 8 5 6 8 9 11 7 6 2 7 15 23 19 15 16 17 16 15 14 13 12 12 11 10 9 10 11 10 9 9 9 8 8 8 8 8 8 8 8 7 7 7 8 9 10 10 9 8 8 7 8 10 11 12 12 13 13 13 14 14 14 14 14 14 15 16 17 18 17 16 16 15
7 7 6 3 2 2 2 3 2 3 3 4 5 4 6 6 8 10 10 10 9 12 16 18 12 6 6 8 9 9 11 13 10 11 16 23 24 17 17 18 17 16 15 14 13 11 9 8 10 11 11 11 9 8 8 8 7 7 6 7 7 7 7 7 7 7 6 6 6 8 8 8 9 9 7 8 9 10 11 11 12 13 12 13 14 14 14 14 14 16 19 20 19 17 16 15 14
7 6 4 1 1 4 3 3 2 2 3 5 5 5 6 7 10 11 9 10 14 17 19 16 9 7 8 9 8 6 9 11 14 18 20 23 21 19 19 18 17 16 15 14 12 10 8 7 10 11 11 9 8 8 7 7 6 6 5 6 6 6 6 6 6 6 6 4 4 6 7 8 9 9 9 8 9 10 11 11 12 12 12 13 14 14 14 14 15 17 20 20 19 17 15 14 14
7 5 3 2 4 4 4 3 2 2 2 5 5 5 6 8 12 11 10 14 18 20 18 13 9 5 5 9 7 8 10 11 14 17 20 18 18 21 20 18 17 16 14 13 11 10 8 8 10 11 10 8 7 7 7 6 6 5 5 5 5 5 6 6 6 6 6 5 4 6 7 8 8 8 9 10 9 10 11 12 12 12 12 13 13 15 15 14 16 17 18 18 18 16 14 14 14
6 3 2 3 5 2 3 2 1 2 3 4 5 7 7 10 12 11 12 15 18 19 16 11 10 8 9 10 6 7 11 13 13 15 18 16 19 22 19 18 16 15 14 13 11 9 8 9 11 11 9 8 7 6 6 6 6 6 6 6 6 6 6 6 6 6 5 5 5 6 7 8 8 8 9 10 10 10 11 12 13 13 12 13 13 15 16 15 16 17 17 17 16 15 15 15 15
4 3 2 3 5 3 3 1 1 2 5 4 5 8 10 11 12 14 14 16 18 17 13 9 11 12 11 11 10 10 9 12 15 15 17 19 21 21 19 18 15 14 14 13 11 9 9 10 11 10 9 7 6 6 6 7 7 7 6 6 6 6 7 7 7 6 5 5 7 7 8 9 9 8 8 10 10 10 11 11 13 14 13 13 14 15 16 17 16 16 16 16 15 15 14 14 14
3 4 3 2 4 4 3 2 2 3 4 3 6 10 11 13 14 16 16 16 16 14 9 9 14 12 9 9 11 10 7 12 15 15 16 21 22 20 19 16 14 15 14 12 11 10 10 10 10 9 8 7 7 7 7 7 7 6 6 6 6 6 7 8 7 6 5 7 8 8 9 10 10 10 9 10 11 11 12 12 13 14 13 13 14 15 16 17 17 17 17 16 15 14 13 12 12
3 3 3 3 3 3 2 2 2 4 4 3 7 10 12 15 16 16 15 15 14 12 10 12 13 10 8 8 9 9 9 12 14 16 18 22 22 19 17 15 15 14 13 11 10 9 8 10 10 9 8 8 7 7 8 7 7 6 6 7 6 6 7 8 8 7 6 8 9 9 10 11 11 11 11 11 12 13 14 14 14 14 14 14 14 16 17 17 17 17 17 17 16 14 13 12 11
4 4 3 4 2 2 1 3 4 6 6 6 9 11 14 16 16 15 14 13 14 13 12 12 9 8 10 11 11 11 11 13 16 19 20 21 21 19 16 14 15 13 13 11 9 8 7 8 9 8 8 7 7 8 8 7 7 7 7 7 7 7 9 9 9 8 8 9 10 10 11 12 12 12 11 11 13 14 15 15 15 14 14 14 14 16 17 18 17 17 17 16 16 15 14 13 12
5 4 3 3 2 2 3 3 4 6 7 7 9 13 15 15 15 14 13 14 14 13 13 10 9 10 12 13 12 11 12 16 19 20 19 19 19 17 15 14 14 13 12 11 9 8 7 7 8 8 8 6 7 9 8 8 8 8 8 8 8 9 10 10 10 9 9 10 11 12 12 12 12 13 13 13 14 15 16 15 16 15 15 15 15 17 18 18 17 17 17 16 16 15 14 13 12
5 3 3 3 2 2 3 5 5 7 8 6 8 13 14 14 14 12 12 14 13 13 13 10 11 15 13 13 12 11 16 18 19 20 19 19 18 16 15 14 14 12 11 11 9 8 7 7 8 8 8 7 8 9 8 9 9 10 9 9 10 10 10 11 12 11 10 11 13 13 13 13 13 14 15 15 15 15 16 16 16 16 16 16 16 18 18 18 18 17 17 16 16 15 14 14 14
4 2 3 3 0 0 2 5 6 7 7 6 8 11 12 13 12 11 12 13 13 13 12 9 11 14 12 12 11 14 18 18 19 20 19 18 17 16 15 14 13 12 11 10 9 8 8 7 7 8 8 8 9 9 9 9 10 11 11 10 11 11 10 12 13 11 11 12 14 15 15 14 15 16 16 17 16 16 17 17 17 16 17 18 18 19 18 18 18 17 17 16 16 16 16 16 16
5 4 4 2 1 0 3 5 7 7 6 5 8 10 11 12 11 12 13 13 13 12 10 9 11 11 11 12 14 18 19 18 18 19 18 17 16 15 15 14 13 11 10 9 8 8 8 8 8 8 7 7 9 10 10 10 11 11 12 11 11 12 12 14 15 12 12 13 15 17 16 16 17 17 17 18 17 17 19 18 17 17 18 19 19 19 18 18 18 17 17 16 16 16 17 17 16
4 5 5 1 0 1 4 5 6 6 5 5 8 10 11 10 11 12 13 13 10 10 10 9 11 11 13 14 15 19 19 18 19 18 18 17 16 16 15 14 13 11 9 8 8 9 9 9 9 9 7 6 9 10 10 11 11 12 12 11 10 12 15 16 15 13 14 16 16 18 19 19 19 19 18 19 18 19 20 20 19 19 19 20 20 20 19 19 18 18 17 17 16 16 17 17 16
4 5 5 2 1 2 4 4 6 6 4 7 8 11 11 8 10 12 12 11 9 9 11 10 8 7 12 14 15 20 22 20 19 18 17 17 16 15 15 14 12 11 9 8 8 9 9 9 9 9 9 6 8 10 11 11 11 12 11 11 11 13 16 17 16 15 16 18 18 20 20 19 19 20 19 19 19 20 21 21 20 20 20 20 20 20 19 19 18 18 18 17 16 16 16 16 15
5 4 4 2 1 2 3 5 7 5 5 8 10 11 11 9 11 11 9 9 11 11 10 9 4 4 13 17 19 23 23 22 20 19 18 17 17 15 15 13 11 10 9 8 7 8 8 9 9 9 10 7 7 10 11 11 12 12 12 12 12 14 17 18 18 17 18 19 20 21 20 20 21 21 20 19 20 21 22 22 21 21 20 20 19 19 19 19 18 18 18 17 16 16 15 14 14
4 5 4 0 1 2 1 5 6 5 6 10 12 12 11 11 10 9 8 10 13 12 9 7 5 7 14 19 23 25 23 23 21 19 19 18 17 15 14 12 11 10 9 8 7 7 8 8 8 9 9 7 8 10 11 11 12 12 13 13 13 14 16 19 20 19 19 21 23 23 22 21 22 23 21 21 21 22 24 23 22 21 21 20 19 18 18 18 18 18 17 17 16 15 15 14 13
5 4 3 1 1 2 3 4 7 7 8 12 13 12 12 12 11 11 11 11 13 12 10 11 11 13 18 22 26 26 23 22 21 20 19 17 16 14 13 12 10 9 8 7 6 7 7 8 8 9 9 8 8 9 10 11 11 11 13 14 14 16 16 19 21 20 21 21 23 24 24 23 24 24 22 23 23 23 24 23 22 21 20 19 18 18 17 18 17 17 16 17 16 14 15 12 11
5 3 2 2 4 5 5 4 10 9 11 14 13 12 12 12 13 14 12 12 14 12 12 14 18 19 22 25 25 24 23 21 21 20 19 17 15 14 13 12 10 9 8 7 6 7 7 8 8 9 9 9 9 9 10 10 11 11 12 14 15 17 17 19 21 21 21 21 23 24 24 24 24 24 23 24 24 24 24 23 22 20 19 18 18 17 17 18 17 17 15 16 16 15 14 10 7
4 3 2 4 6 7 4 5 10 12 17 16 12 12 11 13 13 12 11 13 13 12 14 17 20 22 24 25 24 24 23 21 20 19 18 16 14 13 12 11 10 9 8 7 6 7 7 7 8 9 9 10 10 9 10 10 11 10 11 12 14 17 18 19 20 21 21 21 22 24 25 25 24 23 23 24 24 24 24 22 22 20 19 18 17 16 17 17 16 16 14 15 15 14 11 7 4
2 2 3 6 7 5 3 7 11 16 19 16 13 12 11 13 11 11 14 12 9 11 14 17 23 26 27 27 24 23 22 21 20 18 17 16 14 13 11 10 9 8 9 7 6 7 7 7 8 9 9 9 9 9 10 10 11 10 10 11 12 15 17 19 20 21 21 21 22 25 25 24 23 24 23 23 23 23 23 22 21 20 18 18 17 16 16 16 15 14 14 15 13 9 7 4 4
3 1 3 6 6 4 7 10 13 17 17 14 13 12 12 13 11 12 13 7 7 11 12 17 24 27 28 29 25 22 22 21 19 18 17 16 14 12 11 10 9 9 9 8 7 7 7 7 8 8 8 9 9 9 10 10 11 10 10 11 12 14 16 17 19 20 21 22 24 25 24 22 20 22 23 23 23 22 21 20 19 18 18 18 17 16 16 16 15 13 13 13 9 6 6 5 5
3 1 3 6 5 4 8 11 13 17 16 13 11 10 13 12 11 12 8 5 8 12 12 17 24 25 26 27 26 23 22 20 19 18 17 16 14 12 11 10 9 8 8 8 7 7 7 7 8 8 8 9 9 10 10 10 10 10 10 12 12 13 14 15 17 18 20 21 23 23 21 20 18 19 21 22 22 20 19 18 18 19 18 17 17 16 16 15 13 11 10 10 8 6 6 6 7
5 2 5 7 5 6 9 11 14 16 14 12 11 11 12 10 10 10 6 8 11 13 15 18 22 25 24 24 24 23 21 19 18 17 16 14 13 12 11 10 9 8 8 8 7 7 8 7 8 8 8 9 9 9 10 10 10 10 12 13 14 14 14 15 15 16 17 19 21 20 19 18 18 18 18 19 20 18 18 18 17 17 16 15 15 14 13 11 9 8 8 9 9 7 6 6 6
5 3 5 6 5 9 10 12 15 15 12 12 12 10 9 9 10 8 7 10 12 15 17 20 22 24 23 22 23 22 20 19 17 16 15 13 12 12 11 10 9 8 8 8 8 8 8 8 8 8 8 9 9 10 10 10 10 11 12 14 15 15 14 15 15 15 15 17 18 19 18 17 18 19 19 19 19 18 18 17 16 14 13 12 12 11 10 9 7 7 8 9 8 7 6 6 6
1 4 4 4 7 10 10 13 16 14 11 11 12 9 8 9 9 8 8 11 14 16 18 20 22 23 22 21 21 21 20 18 17 16 14 13 12 12 11 10 9 8 9 8 8 8 8 8 8 8 8 9 9 9 9 10 10 11 12 14 14 14 14 15 15 15 15 16 17 18 19 19 18 19 20 20 20 19 17 15 14 13 11 10 9 9 9 8 6 6 7 7 6 6 5 5 6
3 3 3 6 8 10 10 12 15 14 9 8 9 8 9 8 4 5 8 12 15 17 18 20 22 22 21 21 20 19 18 18 17 16 14 13 12 12 12 10 9 9 9 9 8 8 8 8 8 8 8 9 9 9 9 10 11 11 12 13 14 13 14 14 14 15 16 17 18 18 20 21 19 20 21 20 18 17 15 13 12 11 10 10 9 8 8 7 6 5 6 6 6 6 5 5 5
1 2 8 8 8 10 10 9 14 14 6 6 9 7 7 4 2 6 12 14 15 17 19 20 21 20 20 20 19 18 17 17 16 15 15 14 13 13 12 11 10 9 9 9 8 8 8 8 8 8 8 9 9 9 10 10 11 11 12 13 13 13 14 14 14 16 17 18 19 18 20 20 19 19 20 18 16 14 13 12 11 11 10 10 9 8 8 7 6 5 6 5 4 5 5 5 5
4 6 7 9 8 8 9 8 11 11 6 10 13 7 4 3 2 9 14 15 16 17 18 19 20 19 19 19 18 17 17 16 16 15 14 14 13 13 12 11 11 10 9 9 9 9 9 8 8 8 9 9 9 10 10 10 11 11 11 12 13 13 14 14 14 17 18 17 18 17 17 18 18 18 18 17 15 13 13 12 11 11 10 10 9 9 8 7 6 4 5 4 3 4 4 4 4
6 8 6 7 7 5 6 8 10 9 7 11 9 3 4 4 4 9 14 15 17 17 17 19 19 19 19 18 17 17 16 16 16 15 14 13 13 13 12 12 11 10 10 10 9 10 9 8 8 8 9 9 9 10 10 11 11 11 11 12 13 13 13 14 15 16 18 17 16 15 15 16 16 16 16 15 13 12 12 12 11 10 11 10 10 10 8 6 6 5 4 4 3 3 4 4 4
6 8 6 6 5 5 6 7 10 8 7 8 5 1 4 7 7 10 14 16 17 16 17 18 19 19 18 18 17 17 16 16 15 15 14 14 13 13 12 12 11 10 10 10 10 10 9 9 8 8 10 10 10 10 10 11 12 11 12 12 12 14 13 13 13 14 15 15 14 13 14 14 14 14 13 13 13 11 10 11 11 11 11 10 8 10 9 6 6 6 5 4 3 3 3 3 4
6 6 6 7 4 6 6 7 11 8 8 10 6 2 4 7 11 13 14 16 16 16 17 19 19 19 18 18 17 17 16 15 15 15 14 14 13 13 12 12 12 10 10 11 11 10 9 9 9 8 9 11 10 10 10 12 12 11 12 12 13 14 13 12 12 11 11 11 11 11 12 12 11 12 11 12 12 10 9 10 10 11 11 9 8 9 8 7 6 6 6 5 4 4 3 3 3
7 6 5 7 6 6 4 6 11 9 9 11 9 4 4 7 12 15 15 16 16 15 17 18 19 19 18 17 17 17 17 16 15 15 15 15 14 13 13 13 12 11 11 11 11 10 9 9 10 9 9 10 11 10 11 12 11 11 11 12 13 13 11 10 10 9 9 9 10 9 10 10 10 11 10 11 11 9 8 9 9 10 9 8 8 8 7 6 6 5 6 6 5 4 4 3 3
7 6 5 6 7 8 7 6 9 10 9 10 10 6 4 7 13 16 16 18 17 15 16 18 18 19 18 17 17 17 17 17 16 16 16 15 14 14 13 13 13 11 11 11 10 11 10 10 11 11 10 10 10 11 11 11 11 11 11 10 12 12 9 9 9 8 8 7 8 9 9 9 9 10 10 11 11 8 8 8 8 8 7 7 8 7 6 5 5 5 5 6 6 5 4 4 4
8 7 5 6 7 8 8 6 9 12 9 10 11 6 3 9 13 14 17 19 17 14 16 17 18 18 18 17 17 17 17 17 16 16 17 16 15 14 13 13 13 12 11 11 11 11 12 11 11 12 11 11 10 11 12 11 12 11 10 9 10 10 9 8 8 8 8 7 7 8 9 9 9 9 10 10 10 9 8 7 8 7 6 7 7 6 4 4 5 5 5 6 7 6 5 5 4
8 9 6 7 7 4 5 5 9 13 9 7 8 6 4 9 12 13 16 18 15 12 13 15 17 18 18 17 17 17 17 17 16 16 17 16 15 15 14 13 13 13 12 12 12 12 12 12 12 12 12 12 11 11 12 11 11 11 10 9 9 9 8 8 8 7 7 7 8 8 8 9 8 9 8 8 8 8 7 7 7 7 6 6 6 6 4 3 4 5 5 6 6 5 5 5 5
5 7 6 7 7 5 3 5 8 10 8 7 8 7 6 7 10 14 16 16 15 13 13 15 17 18 18 17 17 17 17 16 16 16 17 16 16 15 14 14 14 13 13 13 12 11 12 12 12 13 12 12 11 11 12 11 10 11 11 9 8 9 9 9 8 7 7 7 8 9 8 8 8 8 8 7 7 7 7 7 7 7 6 6 6 5 4 4 4 4 4 6 6 4 5 5 5
5 6 7 7 5 6 5 6 7 7 5 5 8 7 8 9 10 15 18 16 15 17 16 17 19 18 18 17 17 17 16 16 16 16 17 16 16 16 15 14 14 14 14 13 13 12 12 12 12 13 13 13 12 11 12 12 11 11 10 9 8 8 8 8 7 6 6 7 9 9 8 8 8 8 7 7 7 7 7 8 8 7 6 5 5 4 4 3 4 4 4 4 5 5 6 6 6
6 6 7 5 4 6 7 5 6 6 3 3 8 7 7 9 10 14 18 18 17 20 18 17 17 18 18 17 16 18 16 16 17 17 18 17 17 17 15 15 15 14 13 14 13 13 13 13 13 14 13 13 12 11 12 12 11 10 10 9 8 7 7 7 7 8 7 7 9 9 8 9 8 8 8 7 7 7 8 8 7 7 6 5 4 4 4 3 3 5 4 4 5 5 6 7 8
5 5 8 5 6 6 6 6 8 7 4 3 5 7 5 7 9 10 15 17 16 18 18 18 17 15 17 18 16 17 18 17 18 18 18 18 17 17 16 15 15 14 13 14 14 14 14 14 14 14 14 13 12 12 11 11 11 11 10 10 9 8 7 8 8 8 8 8 8 9 9 9 9 9 8 8 7 7 8 8 7 7 6 6 6 6 6 4 3 4 4 5 5 5 5 6 7
4 4 5 5 10 8 3 7 8 7 5 4 4 6 4 7 9 9 11 13 13 16 18 18 20 15 12 16 16 16 18 18 18 19 19 18 18 17 17 15 15 15 14 14 14 14 14 14 14 15 15 14 13 12 12 12 11 10 10 10 10 9 8 8 8 7 8 8 8 8 8 9 9 9 8 8 7 7 7 7 7 7 6 6 6 6 5 4 4 3 3 5 5 5 5 5 6
6 5 3 2 9 7 5 11 9 5 6 7 7 6 3 7 10 9 10 11 12 15 17 17 21 18 12 14 17 16 17 18 18 19 19 19 18 18 17 16 15 15 15 14 14 14 14 14 14 14 15 14 13 13 13 12 12 10 9 9 9 8 7 7 6 6 6 7 7 7 8 8 9 8 8 8 7 7 7 6 7 7 6 6 7 6 5 4 4 2 3 4 4 5 6 5 6
6 7 4 2 5 7 9 12 8 4 3 6 9 6 1 4 9 11 12 12 12 14 16 17 20 21 17 15 16 17 17 18 18 19 20 20 19 18 17 17 16 15 15 14 14 14 14 15 15 14 14 14 13 13 13 13 12 11 10 9 8 7 7 6 6 6 5 6 6 7 7 8 8 8 8 8 7 7 7 7 7 7 7 6 6 7 6 4 3 3 3 3 3 5 6 5 5
4 9 6 5 6 7 9 9 7 4 2 5 9 7 4 3 6 11 13 13 14 14 15 17 19 23 24 19 16 17 17 18 19 19 20 20 20 19 18 17 16 15 15 15 15 14 15 16 15 14 14 13 13 13 13 13 12 12 11 10 8 8 6 6 7 6 6 6 6 7 7 7 8 8 8 8 8 7 7 7 7 7 7 7 7 6 5 4 4 4 3 3 4 4 4 4 4
4 8 4 5 5 6 7 7 6 4 2 4 8 7 6 3 4 9 13 13 14 15 16 17 20 24 29 25 19 17 18 18 19 19 20 20 20 19 18 17 16 15 15 15 15 15 16 17 16 16 15 13 13 12 12 13 11 11 11 11 9 8 7 6 6 6 6 7 6 7 8 7 8 9 9 9 8 8 7 7 7 7 7 7 6 5 4 5 5 4 3 3 3 2 2 2 3
5 5 4 4 4 5 6 6 4 3 5 7 8 9 7 3 5 7 10 11 12 13 13 17 22 24 28 29 25 20 18 18 18 18 20 20 20 20 18 17 16 15 15 15 15 15 15 17 18 17 16 14 13 12 12 12 11 11 11 11 11 9 8 7 7 7 7 8 7 7 7 7 7 8 8 9 9 9 8 7 7 7 7 7 7 6 5 5 4 4 3 3 2 2 2 1 1
3 6 7 6 5 3 3 4 3 3 7 7 8 10 8 4 4 6 8 9 11 12 11 15 22 25 26 29 31 26 19 19 20 19 19 20 20 20 19 18 17 16 15 14 15 15 15 16 18 18 17 16 14 13 13 12 12 12 12 12 11 10 9 9 8 7 7 7 7 6 6 7 7 7 8 9 10 9 9 8 7 7 7 7 7 7 5 4 3 3 3 3 3 2 2 2 1
5 7 7 6 5 3 3 4 3 6 7 5 5 8 9 6 3 5 7 6 10 12 12 15 21 25 27 26 31 32 23 18 20 20 20 20 20 20 19 18 17 16 16 15 15 16 15 16 17 17 17 17 15 14 14 13 13 13 12 12 12 11 10 9 8 7 7 6 6 6 6 6 7 7 8 9 9 10 9 9 8 8 7 7 7 7 6 6 5 5 5 4 3 2 2 2 2
8 9 8 7 6 5 6 7 6 7 6 3 4 7 8 6 2 5 8 6 7 9 10 14 20 24 27 25 28 34 28 20 19 21 21 21 21 21 20 19 18 17 17 17 16 16 16 17 17 17 17 17 16 16 15 14 14 13 13 12 12 12 11 11 10 8 7 7 6 5 5 5 5 6 7 8 8 9 9 9 9 8 7 7 8 8 7 7 7 6 6 4 3 3 3 2 2
10 10 9 9 7 7 8 7 7 8 6 3 4 5 6 5 3 5 7 6 6 8 8 12 18 21 25 26 25 30 31 24 19 20 22 22 21 21 21 19 18 18 18 17 17 17 17 17 18 17 16 16 16 16 17 16 15 14 14 13 13 13 12 12 11 8 7 7 6 5 4 4 4 5 6 7 7 8 8 8 9 8 8 8 8 8 8 7 7 7 6 5 4 5 4 3 3
10 10 9 10 8 8 8 8 8 8 7 6 5 5 5 4 4 4 4 5 6 7 8 9 14 18 21 24 25 28 33 29 21 20 22 22 22 20 20 20 19 19 18 17 17 18 19 20 19 17 17 16 16 16 17 17 16 15 15 14 14 13 13 12 11 10 9 8 6 6 5 5 5 5 5 7 8 8 8 8 8 8 8 8 8 8 8 7 8 7 7 7 6 6 5 5 4
9 9 9 10 9 8 6 5 6 7 5 6 6 5 2 2 5 5 4 5 6 8 9 9 12 17 19 22 25 27 33 33 25 20 21 21 21 21 20 20 20 19 18 17 18 19 22 22 20 18 17 17 16 16 17 16 16 16 15 15 15 14 14 13 12 12 10 8 8 7 6 6 6 6 6 6 7 8 8 8 8 8 8 8 8 8 8 8 8 8 7 8 7 6 6 6 5
7 9 10 9 9 9 8 5 5 6 6 6 7 7 4 4 5 6 5 5 5 7 11 11 11 16 19 20 23 25 29 32 29 23 21 20 20 20 20 20 19 19 17 18 20 21 23 24 21 19 18 18 17 16 17 16 16 16 15 15 15 15 14 13 12 11 10 9 9 8 7 6 6 6 5 5 7 7 8 8 8 8 8 9 8 8 8 8 8 8 8 8 7 7 7 7 5
5 8 10 8 6 7 8 6 6 7 8 6 7 9 8 6 4 4 6 7 6 6 10 13 12 15 18 18 20 23 26 31 33 29 25 23 19 16 18 19 18 18 18 19 21 23 23 24 23 21 19 19 18 16 17 17 16 15 15 15 16 15 14 13 12 11 10 10 10 8 7 7 6 6 6 7 7 7 8 8 8 8 8 9 9 9 9 9 9 8 8 8 9 9 8 7 6
8 5 9 9 7 7 7 6 7 8 8 6 8 9 8 6 4 5 7 7 6 6 9 13 13 14 16 18 20 22 23 26 31 34 34 31 26 20 18 19 17 16 17 18 22 23 24 25 25 23 21 19 18 16 17 17 16 16 15 15 15 16 15 14 13 12 11 11 10 9 8 8 7 7 8 8 7 7 7 8 8 8 8 8 8 8 9 9 9 8 7 7 8 9 8 7 7
9 7 8 9 7 8 8 7 7 7 8 8 7 8 7 4 2 6 7 6 6 6 8 10 12 13 15 17 20 22 23 22 24 32 38 38 35 28 20 18 16 15 16 18 21 23 24 24 24 24 22 20 19 18 17 17 16 16 16 16 15 15 15 15 15 14 13 12 11 9 9 8 8 7 7 7 7 7 8 7 7 7 7 8 8 8 8 8 8 8 7 7 7 8 8 7 7
10 7 8 9 7 8 8 8 8 7 7 7 7 8 5 2 4 6 8 6 5 6 8 9 11 12 13 14 17 20 23 22 20 25 35 39 38 35 27 19 16 14 13 16 19 20 21 22 22 23 23 22 21 19 18 18 17 16 16 16 16 15 15 15 15 15 14 13 12 11 10 9 8 8 8 8 8 8 8 8 8 8 8 9 9 9 9 8 8 8 8 8 8 9 9 7 8
12 9 9 10 9 8 8 9 9 7 7 5 6 7 3 4 2 4 7 5 6 7 8 9 10 11 11 11 14 17 21 22 20 21 30 36 37 35 32 25 19 15 13 13 15 15 16 18 19 19 20 22 21 20 18 18 18 17 16 16 16 15 15 15 15 15 15 14 13 12 11 10 9 9 9 8 8 8 9 9 8 9 9 10 10 9 9 9 8 8 8 7 7 8 8 8 8
Wind_Direction
138 135 133 150 143 191 219 243 249 202 233 96 100 113 92 84 110 118 123 129 125 128 130 136 138 132 135 106 114 84 50 50 45 62 110 129 151 150 143 145 145 139 139 142 144 142 139 138 134 133 125 116 113 112 111 108 105 98 93 94 100 105 105 106 104 101 100 99 109 118 120 121 119 119 121 117 122 120 114 112 109 107 106 108 110 111 112 110 107 104 103 105 108 108 107 106 105
138 133 138 148 149 243 220 217 237 169 184 113 95 86 109 125 122 122 131 138 126 129 136 137 132 117 116 99 117 116 58 37 61 90 107 134 147 146 145 143 142 140 139 138 138 137 136 141 136 129 121 115 116 116 113 107 100 93 90 90 94 98 100 104 105 103 102 104 117 120 113 109 113 125 127 122 125 123 118 114 110 109 111 112 113 114 113 108 102 102 105 107 107 106 105 102 99
143 133 149 144 234 255 256 223 243 182 155 112 96 91 129 133 115 116 122 123 122 132 138 134 121 115 132 121 111 105 75 61 93 108 116 136 144 146 147 142 143 141 137 135 136 135 133 145 135 120 115 116 119 118 114 110 105 100 95 93 92 94 96 97 101 102 105 118 128 119 114 108 111 123 125 124 128 129 123 116 113 114 116 116 116 115 113 109 103 102 105 107 106 104 100 96 95
150 153 175 240 250 239 249 232 279 277 118 105 108 112 131 118 111 113 117 123 128 137 139 132 115 99 111 112 98 78 87 95 107 118 126 140 147 147 147 144 143 139 136 134 135 138 141 145 125 115 117 119 117 114 114 113 113 109 101 99 98 97 96 99 101 101 112 139 133 115 121 118 117 125 128 127 132 135 128 122 118 118 120 119 118 116 116 113 108 106 104 104 104 102 97 94 95
159 179 203 252 260 247 262 253 294 305 58 76 111 121 124 115 118 121 123 129 136 142 143 138 122 104 84 79 86 89 97 112 118 125 130 139 147 146 147 145 141 139 137 134 135 140 142 130 118 119 120 117 114 109 107 102 97 94 94 95 96 96 99 106 108 113 133 140 118 112 122 126 129 132 131 129 132 136 129 126 121 119 123 121 119 119 120 116 110 107 105 104 105 104 98 95 96
172 245 281 265 278 281 255 205 122 77 48 28 108 122 123 123 129 128 128 134 140 144 142 137 134 127 97 74 73 85 105 124 128 129 133 141 147 147 146 142 139 140 138 136 135 134 134 124 120 120 115 111 105 101 94 88 87 87 93 96 95 97 101 107 114 128 139 121 109 115 125 127 135 140 135 130 134 135 123 120 117 118 122 121 120 120 122 118 112 108 106 105 104 104 102 100 99
215 254 240 250 260 254 256 108 90 95 61 12 110 127 126 130 137 132 134 139 143 146 142 130 134 129 108 103 85 75 106 125 131 134 138 145 147 148 145 142 141 141 139 136 131 130 131 123 117 113 109 104 97 96 95 91 92 97 105 104 102 105 109 112 119 136 137 124 120 121 124 124 135 147 140 133 135 132 119 114 114 118 122 121 121 121 121 118 112 108 105 104 100 99 103 103 101
260 272 241 259 231 226 254 99 78 75 80 72 110 126 128 137 143 138 142 146 151 152 144 138 137 120 108 123 96 82 113 125 133 136 140 145 148 147 144 144 142 141 139 134 130 126 123 117 113 112 109 102 100 100 100 100 99 104 109 109 109 111 115 118 124 138 136 131 129 122 123 126 136 143 135 130 128 124 120 119 118 119 123 122 122 122 120 116 112 108 105 102 98 95 96 97 99
274 276 248 264 242 204 189 108 90 79 100 121 118 126 131 142 147 143 149 151 154 153 143 141 138 119 112 111 101 105 120 128 134 135 140 145 148 147 145 146 143 143 139 131 126 120 119 117 112 109 102 98 103 101 102 102 103 107 106 109 112 113 115 120 128 134 130 128 128 122 127 134 138 134 128 125 120 119 120 124 123 120 122 122 122 121 118 117 114 108 103 100 97 94 91 92 95
269 258 264 279 251 183 152 119 109 98 104 118 123 136 140 148 152 148 152 151 155 151 138 132 119 122 118 106 104 117 129 134 136 137 142 145 147 146 145 146 144 144 138 127 122 119 118 113 106 99 94 94 93 92 97 96 99 101 99 105 110 113 115 120 122 120 121 124 122 120 126 133 135 129 127 126 121 118 119 122 122 120 121 120 120 120 118 118 115 108 103 100 96 91 89 90 91
275 241 254 270 233 181 144 125 119 107 112 121 127 139 145 150 154 152 150 149 158 151 139 132 119 122 116 103 102 119 135 139 140 141 145 147 146 145 144 146 145 143 135 125 122 119 112 105 98 94 95 94 86 85 88 91 96 97 96 100 102 105 111 115 111 108 116 120 117 119 123 128 129 126 126 127 123 120 119 119 119 120 120 118 119 118 117 118 115 109 105 102 97 91 89 90 91
286 274 251 265 298 45 106 120 121 115 126 135 133 140 147 153 157 154 150 152 159 153 144 137 126 128 120 110 114 130 141 142 144 145 146 147 144 143 144 144 143 141 133 125 123 118 109 99 92 92 96 92 85 87 89 91 93 93 92 91 93 98 101 102 100 101 109 113 117 122 126 127 125 123 126 125 122 122 119 117 120 121 119 116 116 115 116 117 113 109 106 103 99 94 92 91 91
289 331 295 299 355 325 108 122 128 127 137 140 137 144 151 156 162 156 151 152 159 157 147 139 136 132 116 116 128 140 145 147 148 147 147 146 144 144 142 142 143 140 133 129 126 114 107 100 95 91 88 85 88 91 91 92 90 88 87 85 90 95 93 91 92 94 98 108 119 123 123 122 121 122 125 122 121 123 119 120 123 121 118 117 117 117 119 118 113 110 106 101 98 97 95 93 91
290 328 308 326 128 209 118 128 144 143 144 136 133 145 156 159 159 154 150 147 152 154 141 142 143 123 116 126 140 148 150 151 150 148 150 147 144 144 142 143 143 136 131 133 124 111 110 106 102 97 88 82 90 92 91 90 88 86 84 84 85 88 89 89 91 90 96 109 118 118 118 118 119 121 123 122 123 122 119 124 126 122 119 118 120 121 121 117 113 111 105 101 100 98 95 94 92
287 315 300 290 201 193 140 148 154 146 140 145 143 148 152 149 153 154 153 144 133 142 135 139 149 132 142 149 151 153 152 151 151 149 151 146 145 146 143 144 140 135 134 135 120 111 112 107 106 103 98 92 84 90 95 93 91 89 85 85 82 85 89 91 94 93 98 109 114 114 114 118 119 119 121 123 124 122 121 125 126 123 120 119 120 120 118 114 112 110 106 103 102 98 94 93 92
280 300 279 268 275 232 164 155 151 143 151 152 149 151 145 140 154 152 149 140 131 144 145 143 154 154 154 150 147 150 149 150 151 150 149 146 146 145 144 143 140 142 141 134 118 114 114 109 108 105 107 107 90 91 97 96 94 92 86 84 80 81 87 91 93 93 98 107 111 110 111 117 118 118 121 122 123 122 123 125 123 121 119 117 116 116 113 109 109 107 105 104 101 98 95 93 89
271 281 267 262 301 277 120 156 158 138 150 151 152 158 144 137 146 136 136 141 138 141 139 132 123 132 141 140 141 144 147 150 151 150 148 148 148 146 146 146 144 144 140 131 121 121 116 111 109 107 110 107 99 97 97 96 95 94 88 83 78 77 82 88 91 92 97 104 106 106 109 114 117 118 120 120 121 122 123 123 122 121 118 115 113 113 109 106 106 105 105 103 101 100 95 88 85
257 270 282 6 348 332 34 143 142 125 143 151 158 161 145 141 141 135 139 140 140 137 128 120 110 116 126 132 138 142 146 150 151 151 151 152 152 151 151 151 147 141 139 133 130 130 117 111 110 110 111 104 100 100 100 98 95 91 85 80 77 77 81 87 92 93 96 101 102 102 106 111 114 115 117 120 120 120 122 122 121 120 117 116 115 112 108 106 106 105 105 103 100 96 92 83 77
253 285 318 12 17 6 11 124 136 135 148 150 157 157 148 145 143 146 146 140 145 141 132 126 118 119 125 132 139 143 146 150 153 153 154 156 156 155 154 153 148 142 141 136 136 133 118 112 112 111 111 106 103 101 101 98 93 87 82 80 78 79 83 88 91 93 97 101 103 104 106 109 112 112 116 120 120 120 120 119 118 118 116 117 117 113 108 108 108 106 105 102 95 84 83 83 77
249 274 322 35 38 16 9 133 136 136 143 149 152 151 149 145 147 157 151 144 152 150 143 138 132 134 135 138 143 146 148 152 155 156 157 157 158 156 154 151 149 145 140 141 142 130 121 117 115 114 108 104 102 103 103 99 96 91 87 84 82 84 87 89 91 95 100 104 106 107 108 110 111 112 115 119 121 121 120 118 116 116 117 117 117 113 108 108 107 106 104 98 86 75 77 83 85
266 273 339 14 36 37 84 123 126 133 143 148 148 148 149 149 152 159 153 149 157 156 153 147 143 144 143 144 148 150 151 154 157 159 159 159 158 156 154 151 149 149 144 145 141 127 126 121 116 117 110 106 103 104 106 104 100 95 91 88 88 92 91 92 95 97 100 104 106 107 108 110 111 113 115 117 118 119 118 116 114 115 117 117 115 113 110 109 108 107 101 89 81 79 87 92 88
278 270 348 358 19 59 108 117 125 135 142 145 147 148 146 149 150 157 158 146 144 152 154 149 147 149 148 147 151 153 153 157 159 161 162 161 159 155 154 151 149 153 148 146 143 130 133 126 118 119 112 109 107 107 108 105 101 98 98 98 98 98 95 96 98 99 101 103 105 106 108 110 111 111 114 117 116 116 115 114 115 117 118 118 117 117 115 112 112 109 97 90 90 91 89 93 97
266 279 8 1 16 73 115 123 131 134 140 146 144 139 141 146 145 154 151 92 120 139 143 146 147 148 149 149 150 154 157 159 161 162 163 162 161 157 155 153 151 154 148 148 150 135 134 131 121 119 114 110 109 108 107 103 100 102 104 104 104 103 102 100 100 102 103 103 105 106 109 112 112 110 113 116 116 115 113 113 116 117 119 120 120 118 116 115 112 104 95 98 104 98 90 91 92
256 303 12 2 30 95 123 130 136 137 141 140 132 136 146 146 141 146 125 99 124 132 135 143 145 147 149 150 151 155 158 159 162 162 162 162 162 158 155 154 153 154 151 150 150 138 136 134 125 120 116 113 112 108 106 104 102 105 104 103 106 107 106 105 106 105 104 105 106 108 111 115 115 113 112 112 112 113 113 113 114 114 119 119 115 112 112 111 103 98 98 98 102 104 109 104 95
240 306 13 9 68 109 126 133 139 140 139 135 132 138 139 137 134 128 114 120 131 131 135 142 146 148 151 153 152 154 158 161 163 161 162 163 162 160 156 155 155 155 154 152 148 142 138 134 128 123 120 118 117 114 110 108 106 107 106 106 109 107 107 111 112 110 108 109 109 110 113 115 116 115 115 114 113 113 113 113 113 114 114 109 105 105 106 101 94 99 99 95 100 107 112 111 107
164 326 359 37 94 116 130 139 139 131 127 130 129 123 119 132 131 113 116 132 136 136 139 144 149 151 153 156 155 156 160 162 164 163 162 163 164 164 161 158 157 157 155 153 150 146 140 133 131 128 126 124 120 118 115 111 111 110 109 110 110 108 110 112 112 111 111 112 112 113 114 113 113 115 116 116 115 115 114 113 114 113 109 103 102 102 99 95 92 94 95 100 110 111 112 111 108
60 352 57 86 104 119 131 139 127 106 97 118 124 120 126 148 164 127 133 143 144 142 142 147 152 154 155 156 157 159 162 164 166 165 164 165 168 168 167 164 157 159 156 153 152 147 140 132 136 135 129 128 125 121 118 116 116 115 113 112 111 112 111 109 108 111 112 112 113 112 113 112 113 116 115 115 115 115 115 115 115 113 108 105 102 99 99 99 101 99 102 113 118 119 119 114 109
90 122 99 102 108 114 118 121 116 110 99 112 115 105 118 163 243 132 141 150 150 146 146 151 154 155 156 156 157 161 164 166 168 170 169 168 172 172 171 168 160 159 156 156 157 146 139 137 142 140 132 133 130 126 123 119 119 117 116 113 114 116 112 107 108 111 113 113 112 110 111 114 116 117 116 117 117 117 117 116 115 112 106 102 102 105 106 102 100 104 112 116 118 124 122 113 111
222 171 121 114 115 112 116 119 127 135 139 123 118 99 115 188 155 131 145 153 151 150 151 155 156 156 157 158 158 163 166 169 171 173 174 172 173 174 172 168 162 158 156 160 155 143 143 146 146 142 136 135 132 130 125 123 123 120 118 117 118 118 113 111 113 115 115 112 110 110 112 114 117 117 118 119 117 117 116 113 110 106 104 105 109 108 100 97 98 96 103 106 111 120 118 110 109
212 176 143 128 132 130 131 137 143 141 134 140 143 124 150 173 155 151 154 154 155 155 156 159 160 159 160 161 161 165 168 170 174 174 175 174 173 173 172 169 162 156 158 160 153 147 150 150 146 144 141 138 135 132 129 127 129 125 121 122 122 119 115 114 115 115 115 113 111 113 115 116 118 119 118 116 114 112 109 110 110 110 112 111 113 110 99 99 103 97 96 96 94 101 109 109 107
188 164 160 163 162 156 155 160 162 146 135 163 182 140 157 163 166 171 162 159 162 158 159 163 163 164 163 163 164 167 171 173 175 175 174 174 173 173 172 169 165 159 159 158 156 156 156 152 148 149 146 140 139 135 132 131 130 129 126 127 127 122 116 114 113 113 113 112 112 115 118 117 118 119 116 113 114 112 109 114 117 121 122 116 118 119 111 107 102 97 95 91 87 85 92 103 100
181 177 182 185 170 141 153 179 182 168 154 182 198 136 155 168 166 176 171 165 169 164 161 166 167 168 166 166 168 169 171 174 175 175 174 174 173 173 172 171 167 162 159 159 162 160 158 158 148 149 150 141 140 139 135 133 132 133 131 130 131 125 120 119 117 115 112 111 113 119 122 121 123 122 120 117 113 112 117 120 125 132 128 121 126 122 113 107 98 95 92 85 86 82 74 85 89
191 214 200 177 159 133 145 186 192 177 155 182 208 178 150 168 165 171 175 170 174 172 165 169 170 169 169 168 170 171 171 173 175 176 175 173 173 173 173 174 170 165 161 162 167 161 160 163 147 147 157 148 144 143 139 138 135 135 134 134 133 127 124 126 124 121 119 118 121 127 128 128 130 127 125 123 115 113 119 121 130 136 129 125 127 120 113 105 92 85 84 84 81 68 57 62 72
186 218 211 171 166 157 152 172 187 177 165 183 207 205 136 146 161 167 177 176 177 178 171 174 174 171 173 172 172 172 172 174 174 175 175 173 173 173 174 176 174 171 166 164 169 163 161 164 155 157 162 156 151 147 144 142 140 140 138 140 140 133 131 135 134 132 129 127 130 136 136 136 136 131 129 125 121 122 124 128 137 136 130 125 121 117 117 108 94 77 70 81 79 61 44 48 57
187 198 202 173 176 171 150 151 174 178 191 193 189 203 138 135 156 169 179 179 181 185 177 177 178 174 174 175 174 174 175 176 174 175 175 175 173 172 174 176 176 176 171 170 172 167 166 168 168 169 164 163 163 154 150 146 144 145 141 145 148 141 141 145 144 142 139 138 143 142 138 139 141 137 131 126 126 129 130 136 141 137 131 123 118 117 116 109 102 85 72 73 64 46 41 46 52
203 192 203 188 174 145 112 127 162 175 196 196 179 200 179 142 151 168 180 183 190 194 180 180 182 178 177 179 177 175 178 178 174 174 174 175 175 172 174 174 177 178 175 178 179 174 174 175 177 177 170 172 174 163 156 151 148 149 145 150 154 147 148 150 147 147 144 146 150 147 142 142 146 141 133 131 131 134 137 141 142 138 133 127 126 126 121 119 106 87 80 71 50 34 40 46 58
231 194 200 204 168 117 124 145 157 183 202 184 177 195 184 155 152 166 178 182 192 194 181 183 185 182 181 181 179 177 179 178 173 174 174 175 174 173 174 174 177 178 178 182 183 181 179 179 183 183 180 180 179 173 166 160 158 157 153 154 156 154 156 153 150 149 149 158 158 152 150 149 150 147 142 140 140 140 141 140 139 135 130 130 132 132 126 123 106 78 69 63 46 46 49 49 72
232 208 200 207 156 131 179 171 156 193 227 177 175 196 189 175 158 161 171 177 193 194 184 186 186 182 183 182 180 178 178 176 173 174 175 176 174 174 175 176 179 181 183 184 182 185 183 182 188 189 187 184 181 181 175 168 164 160 157 157 158 160 158 150 152 155 155 167 165 156 156 157 155 155 153 150 147 144 139 138 138 134 132 133 127 125 121 119 106 81 67 57 46 59 60 56 82
215 213 207 196 122 144 178 170 165 184 237 184 179 207 196 172 158 163 174 182 193 194 189 192 188 182 182 182 181 178 176 176 175 176 177 177 175 175 177 178 183 185 186 187 184 188 187 184 192 195 194 190 185 184 180 174 167 162 161 159 156 158 157 156 161 163 158 164 168 163 163 164 162 161 160 158 152 150 146 143 141 139 139 136 130 128 124 118 102 82 71 65 54 64 70 63 75
210 211 213 182 149 192 189 165 181 187 231 261 196 213 197 162 164 171 182 187 189 190 191 195 197 192 184 183 183 179 178 176 178 180 178 179 178 177 180 180 184 186 188 189 188 190 190 191 194 196 198 196 192 186 179 177 171 166 166 162 160 161 163 169 169 167 165 166 172 172 170 169 168 165 164 164 159 158 155 149 148 147 145 140 134 127 118 107 94 89 84 75 62 68 79 71 67
197 223 233 169 168 210 210 148 167 184 221 256 211 215 201 178 185 175 178 187 185 186 190 192 197 202 191 185 187 184 184 182 181 184 181 181 181 180 183 183 184 187 190 191 190 190 192 196 197 196 198 198 195 188 178 177 174 169 170 168 167 165 167 173 170 172 177 176 177 179 180 176 174 171 170 169 167 167 164 158 155 150 149 147 136 125 125 125 111 105 98 78 61 67 81 80 72
181 207 255 112 161 182 138 143 157 185 207 205 205 224 200 182 195 183 172 183 184 185 191 190 192 199 195 187 190 189 189 188 187 188 186 183 183 182 184 185 187 189 192 194 193 192 193 199 200 198 199 198 197 191 182 179 177 174 173 171 169 166 169 175 172 177 183 180 180 185 188 185 182 180 178 179 176 174 172 166 161 156 156 155 148 143 139 128 115 114 109 90 70 74 81 81 80
179 170 171 125 158 160 146 153 172 208 187 177 203 232 239 183 199 190 176 181 186 186 194 192 188 195 197 191 192 192 190 192 193 192 190 187 184 184 185 187 190 192 194 195 194 193 196 203 203 199 200 201 199 195 189 185 181 179 176 170 172 172 172 176 176 177 177 179 184 190 194 193 190 186 187 191 187 182 179 173 169 163 161 160 161 157 141 128 143 153 140 122 105 91 83 79 80
147 130 160 189 187 169 163 171 192 214 120 159 199 224 251 233 196 182 176 182 189 190 196 192 185 193 199 197 194 193 193 192 193 194 193 190 186 184 186 187 191 193 193 195 195 194 199 206 206 200 201 203 202 199 195 191 185 183 180 174 178 176 174 181 179 176 179 182 186 189 195 200 200 194 194 197 194 191 185 180 179 170 168 169 165 159 150 158 176 167 152 129 112 99 87 80 77
104 110 159 195 199 187 189 206 210 202 209 205 196 208 237 219 149 164 174 185 196 195 196 193 187 192 198 200 197 196 196 192 192 194 193 192 189 187 188 187 190 192 193 195 195 193 201 208 207 203 202 202 203 202 200 198 192 187 185 183 186 182 176 178 179 182 189 191 193 196 195 201 208 204 201 200 198 198 193 187 185 178 178 176 166 168 176 177 178 171 161 140 118 111 103 91 76
96 129 176 158 192 205 210 232 229 192 239 240 196 194 233 207 139 164 179 191 203 198 196 193 190 193 197 200 199 196 197 195 193 194 193 193 191 190 190 190 190 192 193 195 194 193 200 207 207 206 204 201 202 202 203 203 197 192 192 192 193 191 187 182 181 192 197 196 201 205 201 202 210 210 208 207 204 203 199 192 191 189 189 186 179 184 188 184 185 180 172 165 157 146 141 129 80
130 175 193 171 186 203 222 246 252 220 236 240 197 193 232 234 166 180 186 199 202 194 194 190 190 194 196 199 201 198 197 197 195 194 194 193 192 193 193 192 193 194 194 193 193 194 198 205 207 207 207 205 202 201 203 204 201 198 198 198 196 193 195 193 190 198 201 199 205 212 208 203 207 211 212 213 212 208 202 195 194 199 201 197 194 192 187 184 187 194 197 185 171 161 167 170 158
197 208 203 188 188 194 223 220 227 240 232 223 192 197 228 242 204 168 160 187 201 193 192 186 186 192 193 196 202 201 199 198 197 195 195 194 194 196 196 195 195 196 196 195 195 196 198 205 208 207 208 207 203 202 202 201 203 203 202 202 200 195 196 197 196 200 202 203 210 214 207 200 204 213 215 217 217 215 210 206 202 205 208 205 202 200 196 192 186 193 205 198 188 185 178 185 193
209 218 207 199 198 196 213 208 211 232 225 201 199 208 225 239 205 142 144 160 189 192 193 187 185 188 189 191 199 202 202 200 198 196 196 197 197 197 198 199 199 197 199 200 198 198 199 206 210 209 209 206 203 204 202 200 202 205 205 204 203 201 199 200 201 202 206 209 215 214 206 202 204 211 217 218 217 219 218 215 211 209 210 209 207 207 205 199 190 191 200 199 206 218 201 198 207
206 212 204 204 204 199 210 210 213 226 216 200 199 207 227 225 164 136 152 153 159 179 191 189 185 184 185 186 188 197 202 202 201 198 197 199 199 199 199 201 201 201 203 204 203 201 202 209 212 211 212 207 203 204 203 202 202 204 206 205 206 206 203 204 203 202 209 214 216 216 210 209 212 211 213 214 212 216 219 217 213 210 210 211 210 209 209 205 197 197 199 197 208 229 222 209 215
206 214 211 215 215 212 217 209 210 223 216 197 187 201 233 218 146 118 143 158 165 183 185 182 184 181 179 181 181 189 198 201 201 201 200 199 199 199 199 201 204 205 204 205 205 204 209 217 216 212 214 210 205 205 205 204 203 203 205 205 206 207 206 207 206 204 208 211 212 215 211 205 210 218 214 209 208 211 214 213 213 211 209 212 211 208 208 207 205 204 206 205 212 230 230 219 220
200 211 216 220 217 218 234 237 231 237 229 198 196 220 244 133 144 140 140 168 181 188 185 177 182 178 171 176 180 186 196 199 200 201 201 200 199 199 198 201 206 208 207 205 204 208 217 223 221 214 216 215 209 206 207 207 206 205 205 206 207 208 208 207 209 210 210 211 209 209 213 205 204 215 216 209 208 210 211 211 211 212 211 210 211 209 207 209 210 208 212 214 214 228 235 227 224
183 203 216 219 225 229 232 240 245 255 251 208 202 229 213 153 172 162 151 173 171 182 190 180 178 178 172 176 182 183 190 196 198 198 198 196 197 198 200 204 207 209 209 206 209 218 226 227 225 219 218 220 216 211 210 210 210 209 209 208 208 210 211 210 212 215 212 217 218 208 209 214 211 215 213 211 215 211 209 208 207 212 215 212 210 210 209 210 211 209 217 221 213 221 234 229 226
192 198 207 204 234 250 238 230 217 226 241 212 198 224 219 196 190 166 176 186 166 172 187 178 174 177 174 179 185 181 183 191 195 196 195 193 193 195 201 206 210 212 212 211 217 226 231 231 229 225 222 223 222 217 215 215 213 213 213 212 210 211 214 215 216 218 213 216 223 216 212 214 213 212 205 207 216 213 208 208 206 210 215 213 211 213 213 213 212 211 218 223 219 223 234 232 229
237 242 207 195 212 220 215 228 219 214 232 219 195 214 229 221 187 163 181 176 147 152 173 173 173 173 174 180 185 183 183 188 196 202 206 206 203 203 205 207 209 211 209 213 225 231 231 232 232 230 228 227 224 219 219 221 218 217 217 217 215 214 216 217 217 219 218 215 217 218 217 214 210 213 214 211 211 211 213 211 208 213 219 220 218 219 222 221 216 214 218 227 234 238 237 232 232
239 265 214 198 218 217 205 221 228 223 233 227 207 208 219 226 143 138 152 144 134 149 162 169 171 170 173 178 181 184 185 184 191 204 211 212 209 206 203 202 204 208 209 213 227 236 235 234 235 234 232 231 229 223 220 223 221 218 220 222 221 219 218 219 219 218 219 218 216 214 215 216 211 211 218 219 212 210 216 214 209 213 218 224 225 222 226 231 224 219 216 216 233 246 240 231 233
203 227 208 198 215 221 211 215 223 234 238 229 230 222 190 85 60 115 128 126 134 152 155 160 164 166 170 174 178 180 181 182 185 197 206 209 210 209 206 201 194 195 207 215 224 235 238 236 236 238 238 236 234 228 223 225 224 219 221 224 224 224 223 223 223 223 222 220 219 215 212 214 215 213 214 219 219 216 217 215 210 211 213 220 227 223 222 230 229 225 222 214 223 239 238 231 233
196 204 209 203 204 210 210 210 210 228 242 232 239 236 152 74 43 112 125 138 146 147 149 153 158 161 163 169 176 173 175 184 189 190 198 204 208 211 212 211 203 193 200 212 219 224 229 231 230 232 239 239 235 229 224 227 229 225 224 226 224 225 228 227 224 225 225 222 221 218 213 210 214 220 219 218 220 221 223 219 212 216 217 220 228 227 222 225 227 227 228 223 230 242 239 232 236